Погода в Стогинском

Россия / Ярославская область     57°14′13″N   40°03′13″E
темп.,
°C
ветер,
м/с
пор.,
м/с
влажн.,
%
обл.,
%
осадки,
мм/ч
давл.,
гПа
погр.,
м
10 апреля, сб
сб1000:000ю412820 0.0 1025239
03:000ю411813 0.0 1026259
06:00−1ю413825 0.0 1026283
09:00+4ю512713 0.0 1026562
12:00+7ююз69570 0.0 10261398
15:00+8ююз58571 0.0 10251398
18:00+6ю49670 0.0 1025388
21:00+3ю413751 0.0 1025257
11 апреля, вс
вс1100:00+2ю414725 0.0 1025289
03:00+1ююз412771 0.0 1025238
06:000ююз39855 0.0 1026185
09:00+6юз34695 0.0 1028332
12:00+10юз35595 0.0 1029820
15:00+12юз465326 0.0 10291375
18:00+11ю246986 0.0 103085
21:00+8ю387957 0.0 1032156
12 апреля, пн
пн1200:00+5ююз228317 0.0 103323
03:00+4ююв22825 0.0 103430
06:00+4юв22855 0.0 103413
09:00+9юв366424 0.0 1034351
12:00+13вюв4751100 0.0 1033726
15:00+14вюв5849100 0.0 1031914
18:00+11вюв4957100 0.0 1030562
21:00+8вюв41075100 0.0 1030383
13 апреля, вт
вт1300:00+7юв31090100 0.0 1029281
03:00+6юв3997100 0.0 1027220
06:00+6ююв31095100 0.0 1026225
09:00+11ююв41272100 0.0 1025390
12:00+16ю51050100 0.0 1024813
15:00+17ююз4848100 0.0 10231059
18:00+15ю245794 0.0 102275
21:00+11ююв3571100 0.0 102386
14 апреля, ср
ср1400:00+9ю3875100 0.0 1023146
03:00+9ююв237541 0.0 102259
06:00+9ююв257798 0.0 102199
09:00+13ю476093 0.0 1021308
12:00+18ю584699 0.0 1020891
15:00+19ю51041100 0.0 10191300
18:00+16ю3847100 0.0 1018246
21:00+12ю3563100 0.0 101877